Weather in Vyazniki

Russia / Vladimir Oblast     56°14′49″N   42°09′31″E
temp.,
°C
wind,
m/s
gust,
m/s
humid.,
%
clouds,
%
prec.,
mm/h
press.,
hPa
HPBL,
m
24 september, fri
fri2400:00+9se4997100 4.8 1011439
03:00+9se4798100 8.4 1010335
06:00+8sse3995100 0.3 1009368
09:00+9s4891100 0.4 1009401
12:00+12s576839 0.1 10091181
15:00+13s576396 0.5 10081241
18:00+9sse388078 0.8 1009235
21:00+7sse35885 0.8 100985
25 september, sat
sat2500:00+7se3590100 0.0 1009102
03:00+8se3685100 0.0 1009135
06:00+7sse228926 0.0 100933
09:00+9se2482100 0.0 1010165
12:00+12sse3569100 0.0 1010429
15:00+14sse3458100 0.0 1009832
18:00+11sse2266100 0.1 100931
21:00+10sse3572100 0.1 1009135
26 september, sun
sun2600:00+9sse358697 0.3 1009127
03:00+8sse3491100 0.3 100895
06:00+8se2591100 0.0 1008145
09:00+10se358798 0.2 1007267
12:00+9e4790100 0.6 1007373
15:00+9ene3690100 1.0 1008284
18:00+9nne368997 0.0 1009166
21:00+9ne498976 0.2 1011367
27 september, mon
mon2700:00+6n389694 0.0 1013163
03:00+8n41094100 0.0 1014486
06:00+8n4994100 0.0 1015547
09:00+8n5994100 0.1 1017612
12:00+9nne4887100 0.1 1019671
15:00+9nne5886100 0.4 1020705
18:00+8nne4992100 0.1 1022541
21:00+8ene4887100 0.1 1024568
28 september, tue
tue2800:00+7ene488786 0.0 1026534
03:00+6ne4786100 0.0 1028442
06:00+3ne259562 0.0 1029115
09:00+6ne467121 0.0 1031474
12:00+10ene34495 0.0 10311017
15:00+11nne334284 0.0 10311229
18:00+7nne336233 0.0 103234
21:00+4nne227157 0.0 103317